Weather reports worldwide

Advertisment
Sheffield, United Kingdom (99107): temperature & dewpoint: 12.07.2018 18:00:00 - 18.07.2018 18:00:00 (BST)Sheffield, United Kingdom (99107): sunshine duration: 12.07.2018 18:00:00 - 18.07.2018 18:00:00 (BST)Sheffield, United Kingdom (99107): precipitation: 12.07.2018 18:00:00 - 18.07.2018 18:00:00 (BST)
Date & Time tt [°C] td [°C] sd [min] rr [mm]
18.07.2018 18:00:00 21,8 9,4 - 0,0
18.07.2018 17:00:00 21,9 9,6 - 0,0
18.07.2018 16:00:00 22,5 9,9 18 0,0
18.07.2018 15:00:00 22,3 11,0 - 0,0
18.07.2018 14:00:00 22,2 11,2 - 0,0
18.07.2018 13:00:00 22,0 11,1 - 0,0
18.07.2018 12:00:00 20,9 10,0 - 0,0
18.07.2018 11:00:00 20,1 9,6 - 0,0
18.07.2018 10:00:00 18,5 9,2 0 0,0
18.07.2018 09:00:00 17,6 8,6 - 0,0
18.07.2018 08:00:00 16,1 9,2 - 0,0
18.07.2018 07:00:00 14,6 8,8 - 0,0
18.07.2018 06:00:00 14,0 8,8 - 0,0
18.07.2018 05:00:00 14,0 8,8 - 0,0
18.07.2018 04:00:00 14,3 8,3 - 0,0
18.07.2018 03:00:00 14,0 8,6 - 0,0
18.07.2018 02:00:00 13,4 7,9 - 0,0
18.07.2018 01:00:00 14,0 7,7 - 0,0
18.07.2018 00:00:00 14,3 7,4 - 0,0
17.07.2018 23:00:00 14,7 7,4 - 0,0
17.07.2018 22:00:00 15,8 8,0 - 0,0
17.07.2018 21:00:00 17,4 8,6 - 0,0
17.07.2018 20:00:00 18,1 9,5 - 0,0
17.07.2018 19:00:00 20,2 10,1 - 0,0
17.07.2018 18:00:00 20,6 8,8 - 0,0
17.07.2018 17:00:00 20,7 9,4 - 0,0
17.07.2018 16:00:00 20,0 11,0 - 0,0
17.07.2018 15:00:00 - - - 0,0
17.07.2018 14:00:00 - - - 0,0
17.07.2018 13:00:00 - - 6 0,0
17.07.2018 12:00:00 20,2 9,3 48 0,0
17.07.2018 11:00:00 20,3 8,8 60 0,0
17.07.2018 10:00:00 18,8 10,1 54 0,0
17.07.2018 09:00:00 16,9 11,7 18 0,0
17.07.2018 08:00:00 16,1 11,3 30 0,0
17.07.2018 07:00:00 15,1 11,3 60 0,0
17.07.2018 06:00:00 13,1 10,4 24 0,0
17.07.2018 05:00:00 12,8 9,1 0 0,0
17.07.2018 04:00:00 13,4 10,0 0 0,0
17.07.2018 03:00:00 14,4 10,6 0 0,0
17.07.2018 02:00:00 14,9 11,4 0 0,0
17.07.2018 01:00:00 15,6 12,7 - 0,0
17.07.2018 00:00:00 16,2 13,5 0 0,0
16.07.2018 23:00:00 17,0 14,7 0 0,2
16.07.2018 22:00:00 18,8 14,6 0 0,0
16.07.2018 21:00:00 20,7 14,4 0 0,0
16.07.2018 20:00:00 22,6 13,7 6 0,0
16.07.2018 19:00:00 24,8 10,6 18 0,0
16.07.2018 18:00:00 25,9 10,6 48 0,0
16.07.2018 17:00:00 25,5 11,6 12 0,0
16.07.2018 16:00:00 25,6 12,5 6 0,0
16.07.2018 15:00:00 25,6 12,5 24 0,0
16.07.2018 14:00:00 24,1 13,4 0 0,0
16.07.2018 13:00:00 23,6 13,1 0 0,0
16.07.2018 12:00:00 23,3 14,0 0 0,0
16.07.2018 11:00:00 24,1 14,3 60 0,0
16.07.2018 10:00:00 21,7 14,6 36 0,0
16.07.2018 09:00:00 19,5 14,2 0 0,0
16.07.2018 08:00:00 18,8 13,9 12 0,0
16.07.2018 07:00:00 17,2 13,7 18 0,0
16.07.2018 06:00:00 15,2 13,7 24 0,0
16.07.2018 05:00:00 14,8 13,2 0 0,0
16.07.2018 04:00:00 15,0 13,0 0 0,0
16.07.2018 03:00:00 15,8 13,2 0 0,0
16.07.2018 02:00:00 16,8 13,6 0 0,0
16.07.2018 01:00:00 16,8 13,1 - 0,0
16.07.2018 00:00:00 17,8 12,9 0 0,0
15.07.2018 23:00:00 19,1 12,9 0 0,0
15.07.2018 22:00:00 21,3 12,5 0 0,0
15.07.2018 21:00:00 22,7 12,5 30 0,0
15.07.2018 20:00:00 24,7 10,2 48 0,0
15.07.2018 19:00:00 26,0 9,9 36 0,0
15.07.2018 18:00:00 26,1 10,4 54 0,0
15.07.2018 17:00:00 26,6 10,8 48 0,0
15.07.2018 16:00:00 26,7 10,8 60 0,0
15.07.2018 15:00:00 26,5 11,6 60 0,0
15.07.2018 14:00:00 25,7 12,0 54 0,0
15.07.2018 13:00:00 25,0 12,8 60 0,0
15.07.2018 12:00:00 23,3 11,9 54 0,0
15.07.2018 11:00:00 22,8 12,0 60 0,0
15.07.2018 10:00:00 21,8 12,7 60 0,0
15.07.2018 09:00:00 20,8 11,9 60 0,0
15.07.2018 08:00:00 19,2 13,6 60 0,0
15.07.2018 07:00:00 16,7 13,8 60 0,0
15.07.2018 06:00:00 14,1 12,5 12 0,0
15.07.2018 05:00:00 14,3 12,3 0 0,0
15.07.2018 04:00:00 15,4 12,1 0 0,0
15.07.2018 03:00:00 16,6 12,6 0 0,0
15.07.2018 02:00:00 16,6 12,4 0 0,0
15.07.2018 01:00:00 17,7 12,4 - 0,0
15.07.2018 00:00:00 19,3 12,6 0 0,0
14.07.2018 23:00:00 21,0 12,2 0 0,0
14.07.2018 22:00:00 21,8 11,3 0 0,0
14.07.2018 21:00:00 23,6 11,4 54 0,0
14.07.2018 20:00:00 24,8 12,1 54 0,0
14.07.2018 19:00:00 26,5 12,5 60 0,0
14.07.2018 18:00:00 26,4 11,4 48 0,0
14.07.2018 17:00:00 26,2 12,1 48 0,0
14.07.2018 16:00:00 25,9 12,5 54 0,0
14.07.2018 15:00:00 24,5 13,2 18 0,0
14.07.2018 14:00:00 24,6 13,1 54 0,0
14.07.2018 13:00:00 23,7 13,4 30 0,0
14.07.2018 12:00:00 22,1 13,8 18 0,0
14.07.2018 11:00:00 21,2 14,6 42 0,0
14.07.2018 10:00:00 19,5 13,6 54 0,0
14.07.2018 09:00:00 18,9 14,3 60 0,0
14.07.2018 08:00:00 17,6 14,5 60 0,0
14.07.2018 07:00:00 14,7 14,6 30 0,0
14.07.2018 06:00:00 13,8 13,5 0 0,0
14.07.2018 05:00:00 13,8 13,4 0 0,0
14.07.2018 04:00:00 14,4 13,9 0 0,0
14.07.2018 03:00:00 14,7 14,0 0 0,0
14.07.2018 02:00:00 15,3 14,5 0 0,0
14.07.2018 01:00:00 15,9 14,9 - 0,0
14.07.2018 00:00:00 16,5 15,4 0 0,0
13.07.2018 23:00:00 16,9 15,7 0 1,6
13.07.2018 22:00:00 17,8 15,9 0 1,0
13.07.2018 21:00:00 19,7 14,5 0 0,2
13.07.2018 20:00:00 21,6 12,9 0 0,0
13.07.2018 19:00:00 22,2 12,8 36 0,0
13.07.2018 18:00:00 22,8 13,1 36 0,0
13.07.2018 17:00:00 22,4 14,1 48 0,0
13.07.2018 16:00:00 21,1 14,0 60 0,0
13.07.2018 15:00:00 19,3 13,8 18 0,0
13.07.2018 14:00:00 17,0 13,5 0 0,0
13.07.2018 13:00:00 16,2 13,3 0 0,0
13.07.2018 12:00:00 15,8 14,0 0 0,2
13.07.2018 11:00:00 15,1 13,2 0 0,4
13.07.2018 10:00:00 15,2 12,6 0 0,4
13.07.2018 09:00:00 15,2 12,2 0 0,0
13.07.2018 08:00:00 15,0 11,8 0 0,0
13.07.2018 07:00:00 14,7 11,4 0 0,0
13.07.2018 06:00:00 14,6 11,4 0 0,0
13.07.2018 05:00:00 14,3 11,6 0 0,0
13.07.2018 04:00:00 14,5 11,7 0 0,0
13.07.2018 03:00:00 14,3 11,4 0 0,0
13.07.2018 02:00:00 15,3 11,7 0 0,0
13.07.2018 01:00:00 15,5 11,8 - 0,0
13.07.2018 00:00:00 15,7 11,8 0 0,0
12.07.2018 23:00:00 16,7 11,9 0 0,0
12.07.2018 22:00:00 18,1 12,0 0 0,0
12.07.2018 21:00:00 19,4 11,8 0 0,0
12.07.2018 20:00:00 20,1 12,1 6 0,0
12.07.2018 19:00:00 20,9 12,6 36 0,0
12.07.2018 18:00:00 20,3 12,5 24 0,0

tt = temperature
td = dewpoint
sd = sunshine duration
rr = precipitation

Next stations